Location: Unspecified
(0.0000°N, 0.0000°E)
Time: 01:11:58
(UTC+00:00)

CZ-3B DEB - Pass Details

Date: 22 February 2026
Orbit: 643 x 41817 km, 26.5° (Epoch: 5 March)

Event Time Altitude Azimuth Distance (km) Brightness Sun altitude
Rises 22:28:02 0° 111° (ESE) 40,506 ? -61.8°
Reaches altitude 10° 23:49:59 10° 114° (ESE) 44,727 ? -78.2°
Maximum altitude 05:16:13 41° 132° (SE) 29,830 ? -14.1°
Drops below altitude 10° 07:03:14 10° 107° (ESE) 12,312 ? 12.2°
Sets 07:10:21 0° 102° (ESE) 11,362 ? 14.0°
